Location: Agadir ouamesse
(31.0866°N, 8.9848°W)
Time: 23:53:23
(UTC+00:00)

Daily predictions for brighter satellites

Satellite Brightness Start Highest point End
(mag) Time Altitude Azimuth Time Altitude Azimuth Time Altitude Azimuth
Meteor 1-26 Rocket 4.4 17:46:53 10° S 17:52:44 70° E 17:58:44 10° NNE
USA 234 4.2 17:50:25 10° E 17:55:34 26° NE 18:00:43 10° NNW
Cosmos 1151 Rocket 3.7 17:52:30 10° SSE 17:56:24 34° E 18:00:20 10° NNE
Cosmos 1656 4.2 17:51:27 10° NNW 17:56:59 68° WSW 18:02:34 10° S
CZ-4B R/B 3.3 17:56:51 10° S 18:00:59 68° WSW 18:04:56 10° NNW
Cosmos 1666 4.2 17:59:14 10° NE 18:01:40 17° ENE 18:04:06 10° ESE
Cosmos 1933 4.3 17:58:08 10° SSW 18:02:05 52° W 18:06:02 10° N
Cosmos 1634 Rocket 4.1 17:57:08 10° S 18:03:27 82° E 18:09:47 10° N
Cosmos 1900 4.3 18:00:44 10° SSW 18:05:31 67° ESE 18:10:22 10° NNE
X-37B 0.6 18:04:34 10° SW 18:07:21 53° SE 18:10:00 11° ENE
NOSS 3-1 (A) 4.3 17:59:58 10° NNW 18:08:04 76° ENE 18:17:09 10° SSE
Okean O Rocket 3.1 18:06:30 10° ESE 18:09:21 17° ENE 18:12:12 10° NNE
Cosmos 1743 Rocket 4.3 18:06:11 10° NNW 18:10:26 58° W 18:14:41 10° S
ATLAS 5 CENTAUR R/B 4.1 17:58:31 10° SW 18:10:59 22° S 18:16:03 10° SE
Meteor 2-14 Rocket 4.4 18:08:28 10° N 18:14:31 66° E 18:20:31 10° SSE
Cosmos 2026 Rocket 3.9 18:10:03 10° N 18:16:09 75° E 18:22:10 10° S
Cosmos 1812 2.6 18:12:48 10° S 18:16:36 75° E 18:20:27 10° N
Cosmos 1328 Rocket 3.9 18:12:53 10° SSE 18:17:03 43° E 18:21:16 10° NNE
Cosmos 858 Rocket 4.5 18:11:51 10° N 18:17:06 64° ENE 18:22:16 10° SSE
Cosmos 1697 Rocket 2.6 18:11:41 10° NNW 18:17:19 83° ENE 18:22:55 10° SSE
Aurora 2 Rocket 4.2 18:14:47 10° WSW 18:18:52 35° S 18:24:28 10° ESE
APEX 4.1 18:15:13 10° S 18:19:16 33° ESE 18:22:09 13° NE
Landsat 5 4.1 18:17:52 10° NE 18:21:28 31° E 18:24:56 10° SSE
Cosmos 1666 Rocket 4.0 18:17:44 10° N 18:21:53 39° E 18:25:59 10° SSE
Cosmos 1980 Rocket 2.5 18:16:48 10° N 18:22:09 42° ENE 18:27:26 10° SE
CORIOLIS 4.3 18:21:16 10° SSE 18:26:39 84° WSW 18:32:05 10° NNW
Cosmos 2369 3.7 18:21:03 10° NNW 18:26:44 62° ENE 18:32:20 10° SSE
Cosmos 1570 Rocket 4.1 18:22:29 10° SSW 18:27:44 79° WNW 18:32:58 10° NNE
Cosmos 1814 Rocket 4.5 18:24:20 10° SSW 18:29:31 64° WNW 18:34:41 10° N
Cosmos 2082 Rocket 3.4 18:24:37 10° SW 18:29:59 42° WNW 18:35:22 10° N
Meteor 2-8 Rocket 4.5 18:24:14 10° S 18:30:14 61° E 18:36:18 10° NNE
Meteor 1-5 Rocket 4.5 18:27:12 10° N 18:32:58 50° E 18:38:36 10° SSE
SL-16 R/B 4.0 18:32:11 10° NNE 18:33:20 12° NE 18:33:20 12° NE
Meteor 1-14 Rocket 4.3 18:29:56 10° N 18:35:45 61° E 18:41:38 10° SSE
Cosmos 2180 Rocket 4.5 18:29:53 10° S 18:36:12 70° E 18:42:28 10° N
SKYMED 2 3.5 18:32:46 10° NNE 18:37:07 81° ESE 18:41:27 10° S
Meteor 2-21 Rocket 4.3 18:32:59 10° N 18:39:03 78° E 18:45:05 10° S
CZ-2C R/B 1.3 18:35:25 10° WSW 18:39:42 82° NNW 18:42:01 25° ENE
USA 276 2.4 18:36:38 10° NW 18:39:43 65° SW 18:42:48 10° SE
CZ-4B DEB 4.4 18:34:26 10° S 18:39:57 75° WSW 18:45:27 10° NNW
ARGOS 3.4 18:37:45 10° SE 18:42:53 46° ENE 18:48:02 10° N
Sich 1 4.1 18:41:28 10° NNW 18:45:36 48° W 18:49:46 10° SSW
Tiangong 2.1 18:47:01 10° SSW 18:49:50 30° SE 18:50:15 29° SE
deb Chang Zheng 4 3.5 18:45:38 10° SSE 18:49:51 59° ENE 18:54:05 10° N
Cosmos 2278 3.8 18:44:48 10° N 18:50:22 53° ENE 18:55:52 10° SE
H-2A R/B 3.8 18:53:28 18° ESE 18:53:28 18° ESE 18:55:22 10° SE
CZ-4C R/B 2.7 18:56:15 35° NNE 18:57:32 73° E 19:00:55 10° S
Meteor 1-27 Rocket 3.9 18:53:05 10° SSE 18:58:21 46° E 19:01:42 21° NNE
Cosmos 1515 Rocket 3.4 18:56:04 10° S 19:00:30 75° E 19:04:03 16° N
SL-08 RB Rocket 3.9 18:57:36 10° SSE 19:02:03 47° ENE 19:06:29 10° N
BREEZE M DEB (TANK) 3.9 18:47:25 10° NW 19:03:56 86° NE 19:07:28 19° SE
GPS 2-04 Rocket1 2.6 19:01:19 10° WNW 19:05:27 73° NNE 19:06:14 54° E
Cosmos 1867 3.5 19:00:54 10° SSW 19:06:16 67° ESE 19:08:41 33° NE
IRAS Rocket 4.4 19:04:56 30° NE 19:07:15 47° ESE 19:12:34 10° S
Aureole 3 Rocket 3.1 19:04:11 10° SSE 19:07:43 49° E 19:07:46 49° E
H-2A R/B 2.8 19:02:58 10° S 19:08:03 53° W 19:13:03 10° NNW
CZ-4B R/B 3.3 19:05:12 10° S 19:10:39 76° WSW 19:16:02 10° NNW
CZ-2C R/B 3.6 19:07:17 10° N 19:12:09 44° WNW 19:17:01 10° SW
USA 32 3.9 19:12:15 10° S 19:17:27 74° E 19:20:55 22° N
Cosmos 921 Rocket 4.4 19:14:54 10° SW 19:18:45 36° WNW 19:22:12 13° N
DMSP B5D1-3 4.4 19:19:07 36° NNE 19:21:13 74° ESE 19:26:18 10° S
CZ-4C R/B 3.0 19:14:13 10° NNW 19:22:03 72° ENE 19:30:43 10° SE
ISS -0.9 19:25:49 10° NNW 19:26:04 12° NNW 19:26:04 12° NNW
USA 234 3.2 19:33:08 19° SE 19:38:01 83° SW 19:44:35 10° NW
X-37B 3.8 19:41:11 10° WNW 19:41:14 10° WNW 19:41:14 10° WNW
Cosmos 2266 Rocket 4.2 19:37:16 10° N 19:43:39 72° W 19:50:00 10° S
Meteor 1-11 Rocket 3.7 19:39:37 10° N 19:45:18 83° W 19:51:06 10° S
Okean O Rocket 3.3 19:41:22 10° SSW 19:45:21 33° W 19:49:24 10° NNW
NOSS 3-3 (A) 3.8 19:40:01 10° SW 19:45:27 74° WNW 19:46:20 61° N
NOSS 3-3 (C) 3.8 19:40:06 10° SW 19:45:33 75° WNW 19:46:24 63° N
CZ-2C R/B 4.2 20:15:27 10° WNW 20:16:11 14° WNW 20:16:11 14° WNW
SL-16 R/B 4.2 20:13:50 10° NNW 20:15:18 19° NNW 20:15:18 19° NNW
ATLAS 3B CENTAUR R/B 4.2 20:10:58 10° W 20:30:52 79° S 20:33:46 65° ESE
